Home   Weather   Plettenberg   Past weeks

Flag for Germany Past Weather in Plettenberg, North Rhine-Westphalia, Germany — Yesterday and Last 2 Weeks

Now
55 °F

Partly sunny.


Feels Like: 52 °F
Forecast: 56 / 72 °F
Wind: 13 mph from Southwest

Location: Dortmund / Wickede

Current Time: Jul 28, 2017 at 7:04:29 am

Latest Report: Jul 28, 2017 at 6:20 am


Visibility: N/A

Pressure: 29.83 "Hg

Humidity: 77%

Dew Point: 48 °F

Location of PlettenbergLocation

Past Weather in Plettenberg — Graph

°F

Plettenberg Temperature Yesterday

Maximum temperature yesterday: 68 °F (at 11:50 am)
Minimum temperature yesterday: 54 °F (at 9:50 pm)
Average temperature yesterday: 65 °F

High & Low Weather Summary for the Past Weeks

 TemperatureHumidityPressure
High90 °F (Jul 19, 2:50 pm)100% (Jul 24, 11:50 am)30.21 "Hg (Jul 24, 11:50 am)
Low39 °F (Jul 24, 11:50 am)29% (Jul 19, 2:50 pm)29.68 "Hg (Jul 25, 6:50 pm)
Average65 °F65%29.95 "Hg
* Reported Jul 13 5:20 am — Jul 28 5:50 am, Plettenberg. Weather by CustomWeather, © 2017

Note: Actual official high and low records may vary slightly from our data, if they occured in-between our weather recording intervals... More about our weather records

Advertising

Plettenberg Weather History for the Previous 24 Hours

Scroll right to see more
 ConditionsComfort  
Time TempWeatherWind HumidityBarometerVisibility
5:50 am
Fri, Jul 28
54 °FSunny.10 mph82%29.80 "Hg10 mi
5:20 am54 °FClear.10 mph82%29.80 "Hg10 mi
9:50 pm
Thu, Jul 27
54 °FClear.2 mph77%29.74 "Hg10 mi
9:20 pm61 °FSunny.1 mph59%29.74 "Hg10 mi
8:50 pm64 °FScattered clouds.5 mph56%29.74 "HgN/A
8:20 pm66 °FPassing clouds.7 mph52%29.74 "HgN/A
7:50 pm66 °FScattered clouds.7 mph52%29.74 "HgN/A
7:20 pm66 °FScattered clouds.9 mph56%29.74 "HgN/A
6:50 pm66 °FScattered clouds.8 mph56%29.74 "HgN/A
6:20 pm68 °FPassing clouds.9 mph56%29.74 "HgN/A
5:50 pm68 °FSunny.13 mph49%29.74 "Hg10 mi
5:20 pm66 °FPassing clouds.12 mph52%29.74 "HgN/A
4:50 pm68 °FScattered clouds.10 mph53%29.74 "HgN/A
4:20 pm66 °FSunny.13 mph52%29.74 "Hg10 mi
3:50 pm68 °FPassing clouds.10 mph49%29.74 "HgN/A
3:20 pm68 °FPassing clouds.9 mph49%29.74 "HgN/A
2:50 pm68 °FScattered clouds.12 mph53%29.74 "HgN/A
2:20 pm68 °FPassing clouds.15 mph56%29.74 "HgN/A
1:50 pm68 °FPassing clouds.13 mph53%29.77 "HgN/A
1:20 pm68 °FPassing clouds.16 mph53%29.74 "HgN/A
12:50 pm68 °FPassing clouds.15 mph53%29.74 "HgN/A
12:20 pm68 °FPassing clouds.13 mph53%29.74 "HgN/A
11:50 am68 °FScattered clouds.12 mph64%29.74 "HgN/A
11:20 am66 °FPartly sunny.12 mph68%29.74 "HgN/A
10:50 am66 °FScattered clouds.10 mph68%29.74 "HgN/A
10:20 am64 °FPartly sunny.13 mph73%29.74 "HgN/A
9:20 am64 °FScattered clouds.9 mph78%29.74 "HgN/A
8:50 am64 °FPartly sunny.9 mph83%29.74 "HgN/A
8:20 am64 °FScattered showers. Partly sunny.9 mph78%29.74 "HgN/A
7:50 am63 °FScattered clouds.10 mph83%29.71 "HgN/A
7:20 am63 °FPartly sunny.10 mph83%29.74 "HgN/A
Weather by CustomWeather, © 2017

See weather overviewHow to use our weather pages